Hourly Data Report for February 26, 2012

HALIFAX STANFIELD INT'L A
NOVA SCOTIA

44°52'48.060" N
63°30'00.050" W
145.40 m
8202250
71395
YHZ

Download Data

Hourly Data (February 2012)
Hourly Data Report for February 26, 2012
TIME
LST
Temp Definition
°C
Dew Point Definition
°C
Rel Hum Definition
%
Precip. Amount Definition
mm

Wind Dir Definition
10's deg

Wind Spd Definition
km/h
Visibility Definition
km
Stn Press Definition
kPa
Hmdx Definition


Wind Chill Definition


Weather Definition


00:00 -0.7 -2.9 85   28 30 24.1 97.10   -7 Mostly Cloudy
01:00 -0.9 -3.9 80   27 22 24.1 97.21   -7 Mainly Clear
02:00 -1.0 -3.8 81   27 24 24.1 97.34   -7 Snow Showers
03:00 -0.9 -2.5 89   26 22 6.4 97.43   -7 Snow Showers
04:00 -0.7 -2.4 88   27 20 12.9 97.53   -6 Snow Showers
05:00 -0.7 -2.7 86   29 28 24.1 97.65   -7 Snow Showers
06:00 -0.7 -2.8 86   30 33 19.3 97.80   -8 Snow Showers
07:00 -0.6 -4.7 74   30 33 24.1 97.97   -8 Mostly Cloudy
08:00 -0.6 -5.1 72   30 24 24.1 98.20   -7 Mostly Cloudy
09:00 -0.1 -5.5 67   30 35 24.1 98.36   -7 Mostly Cloudy
10:00 -0.8 -4.1 78   29 28 12.9 98.53   -7 Snow Showers
11:00 -1.1 -5.7 71   29 33 24.1 98.65   -8 Snow Showers
12:00 0.1 -5.6 65   29 39 24.1 98.75     Mostly Cloudy
13:00 -0.3 -6.2 64   30 33 24.1 98.88   -7 Mostly Cloudy
14:00 -0.1 -6.2 63   29 32 24.1 98.99   -7 Mainly Clear
15:00 -1.0 -7.6 61   29 30 24.1 99.18   -8 Mostly Cloudy
16:00 -1.0 -7.6 61   29 30 24.1 99.28   -8 Mostly Cloudy
17:00 -1.2 -7.9 60   30 22 24.1 99.42   -7 Mainly Clear
18:00 -2.6 -8.5 64   29 28 24.1 99.63   -10 Mainly Clear
19:00 -2.7 -8.3 65   30 24 24.1 99.77   -9 Mainly Clear
20:00 -2.3 -8.4 63   31 28 24.1 99.90   -9 Mostly Cloudy
21:00 -3.1 -9.3 62   31 33 24.1 100.02   -11 Mainly Clear
22:00 -3.8 -10.2 61   31 32 24.1 100.12   -12 Clear
23:00 -4.7 -11.2 60   30 41 24.1 100.25   -14 Mainly Clear

Notes on Data Quality.

Legend

  • E = Estimated
  • M = Missing
  • NA = Not Available*
  • [empty] = Indicates an unobserved value
Date modified: